EW1895 Weather Reports


time (UTC)temp
C
wind
direction
speed
KPH
gust
KPH
rain 1hr
cm
rain 24hr
cm
rain mn
cm
humidity
%
barometer
mb
20260510014538 17 244 0.0 0.0 0.00 0.00 0.00 73 1010.0
20260510011534 17 244 0.0 0.0 0.00 0.00 0.00 71 1009.7
20260510010029 18 244 0.0 0.0 0.00 0.00 0.00 68 1009.6
20260510004526 18 244 0.0 0.0 0.00 0.00 0.00 65 1009.4
20260510001520 20 244 0.0 0.0 0.00 0.00 0.00 61 1009.1
20260510000015 21 244 0.0 0.0 0.00 0.00 0.00 58 1008.9
20260509234517 21 244 0.0 0.0 0.00 0.00 0.00 58 1008.7
20260509231506 22 153 0.0 1.6 0.00 0.00 0.00 56 1008.8
20260509230003 22 190 0.0 0.0 0.00 0.00 0.00 54 1008.8
20260509224600 23 190 0.0 0.0 0.00 0.00 0.00 51 1008.7
20260509224504 23 190 0.0 0.0 0.00 0.00 0.00 51 1008.8
20260509223158 23 190 0.0 0.0 0.00 0.00 0.00 50 1008.7
20260509221555 23 185 0.0 0.0 0.00 0.00 0.00 49 1008.8
20260509220056 24 162 0.0 4.8 0.00 0.00 0.00 47 1008.7
20260509214555 24 107 0.0 3.2 0.00 0.00 0.00 46 1008.6
20260509213154 25 271 0.0 0.0 0.00 0.00 0.00 46 1008.6
20260509211554 25 272 0.0 4.8 0.00 0.00 0.00 44 1008.5
20260509210105 26 278 0.0 3.2 0.00 0.00 0.00 43 1008.4
20260509204557 25 17 0.0 4.8 0.00 0.00 0.00 43 1008.4
20260509203152 26 240 0.0 3.2 0.00 0.00 0.00 43 1008.3
20260509201552 26 292 1.6 11.3 0.00 0.00 0.00 41 1008.2
20260509200105 26 319 0.0 4.8 0.00 0.00 0.00 40 1008.4
20260509194549 25 209 0.0 8.0 0.00 0.00 0.00 43 1008.5
20260509193147 25 178 0.0 4.8 0.00 0.00 0.00 47 1008.7
20260509191546 25 130 0.0 3.2 0.00 0.00 0.00 47 1008.9
20260509190053 25 36 0.0 1.6 0.00 0.00 0.00 47 1009.3
20260509184607 26 360 0.0 6.4 0.00 0.00 0.00 43 1009.4
20260509183141 26 214 0.0 12.9 0.00 0.00 0.00 45 1009.6
20260509181544 25 306 1.6 6.4 0.00 0.00 0.00 50 1009.8
20260509180033 25 187 1.6 8.0 0.00 0.00 0.00 48 1010.2
20260509174536 24 108 0.0 6.4 0.00 0.00 0.00 48 1010.2
20260509173132 25 125 3.2 12.9 0.00 0.00 0.00 47 1010.4
20260509171533 25 256 0.0 11.3 0.00 0.00 0.00 47 1010.2
20260509170030 25 316 0.0 9.7 0.00 0.00 0.00 47 1010.5
20260509164526 24 309 1.6 8.0 0.00 0.00 0.00 50 1010.7
20260509163124 22 273 0.0 8.0 0.00 0.00 0.00 52 1010.9
20260509161521 23 267 0.0 11.3 0.00 0.00 0.00 52 1010.8
20260509160019 22 80 0.0 8.0 0.00 0.00 0.00 54 1011.0
20260509154515 22 284 0.0 11.3 0.00 0.00 0.00 53 1011.2
20260509153113 21 248 0.0 11.3 0.00 0.00 0.00 58 1011.5
20260509151511 20 202 0.0 8.0 0.00 0.00 0.00 60 1011.6
20260509150009 20 270 0.0 6.4 0.00 0.00 0.00 63 1011.9
20260509144507 19 274 0.0 8.0 0.00 0.00 0.00 66 1012.0
20260509143105 18 154 0.0 11.3 0.00 0.00 0.00 69 1012.5
20260509141503 18 210 0.0 3.2 0.00 0.00 0.00 70 1012.6
20260509140002 17 178 0.0 8.0 0.00 0.00 0.00 72 1012.7
20260509134502 17 140 0.0 0.0 0.00 0.00 0.00 74 1012.8
20260509133102 16 126 0.0 6.4 0.00 0.00 0.00 75 1013.1
20260509131503 16 265 0.0 0.0 0.00 0.00 0.00 76 1013.1
20260509130106 15 237 0.0 6.4 0.00 0.00 0.00 79 1013.1
20260509124603 15 92 0.0 4.8 0.00 0.00 0.00 81 1013.0
20260509123103 13 192 0.0 4.8 0.00 0.00 0.00 83 1012.9
20260509121559 13 115 0.0 6.4 0.00 0.00 0.00 85 1013.1
20260509114557 11 179 0.0 0.0 0.00 0.00 0.00 88 1012.9
20260509113120 11 214 0.0 1.6 0.00 0.00 0.00 89 1013.1
20260509111604 10 224 0.0 3.2 0.00 0.00 0.00 89 1012.9
20260509110058 10 238 0.0 1.6 0.00 0.00 0.00 89 1013.0
20260509104600 10 166 0.0 1.6 0.00 0.00 0.00 88 1012.9
20260509103059 10 160 0.0 0.0 0.00 0.00 0.00 87 1012.8
20260509101556 10 160 0.0 0.0 0.00 0.00 0.00 86 1012.8
20260509100110 10 160 0.0 0.0 0.00 0.00 0.00 86 1012.8
20260509094555 10 197 0.0 0.0 0.00 0.00 0.00 85 1012.9
20260509093053 10 239 0.0 0.0 0.00 0.00 0.00 83 1012.9
20260509091603 10 240 0.0 0.0 0.00 0.00 0.00 83 1013.0
20260509090052 10 240 0.0 0.0 0.00 0.00 0.00 81 1013.0
20260509084548 10 240 0.0 0.0 0.00 0.00 0.00 80 1013.0
20260509083048 11 240 0.0 0.0 0.00 0.00 0.00 79 1012.7
20260509081556 11 239 0.0 0.0 0.00 0.00 0.00 78 1012.8
20260509080050 11 240 0.0 1.6 0.00 0.00 0.00 78 1012.8
20260509074545 11 213 0.0 1.6 0.00 0.00 0.00 77 1012.8
20260509073048 11 200 0.0 0.0 0.00 0.00 0.00 77 1013.2
20260509071546 11 200 0.0 0.0 0.00 0.00 0.00 75 1013.4
20260509070042 11 200 0.0 0.0 0.00 0.00 0.00 74 1013.5
20260509064541 11 200 0.0 0.0 0.00 0.00 0.00 74 1013.7
20260509063041 11 223 0.0 0.0 0.00 0.00 0.00 73 1014.0
20260509061550 11 223 0.0 0.0 0.00 0.00 0.00 71 1014.0
20260509060036 12 147 0.0 0.0 0.00 0.00 0.00 69 1014.1
20260509054540 12 148 0.0 0.0 0.00 0.00 0.00 69 1014.2
20260509053050 12 150 0.0 0.0 0.00 0.00 0.00 67 1014.0
20260509051531 12 150 0.0 0.0 0.00 0.00 0.00 67 1013.9
20260509050031 12 150 0.0 0.0 0.00 0.00 0.00 66 1013.9
20260509044532 13 150 0.0 0.0 0.00 0.00 0.00 64 1013.7
20260509043026 13 150 0.0 0.0 0.00 0.00 0.00 64 1013.7
20260509041525 13 187 0.0 0.0 0.00 0.00 0.00 63 1013.8
20260509040023 13 186 0.0 0.0 0.00 0.00 0.00 61 1013.8
20260509034521 13 186 0.0 0.0 0.00 0.00 0.00 61 1014.3
20260509033021 13 196 0.0 1.6 0.00 0.00 0.00 60 1014.3
20260509031518 13 194 0.0 0.0 0.00 0.00 0.00 60 1014.3
20260509030017 14 198 0.0 0.0 0.00 0.00 0.00 57 1014.2
20260509024518 14 200 0.0 0.0 0.00 0.00 0.00 56 1014.2
20260509023015 14 191 0.0 1.6 0.00 0.00 0.00 55 1014.2
20260509021513 14 138 0.0 0.0 0.00 0.00 0.00 56 1014.3
20260509020010 14 265 0.0 0.0 0.00 0.00 0.00 56 1014.0